Regional Weather Roundup
Issued by NWS

Home | Current Version | Previous Version | Text Only | Print | Product List | Glossary On
Versions: 1 2 3 4 5 6 7 8 9 10 11 12 13 14 15 16 17 18 19 20 21 22 23 24 25 26 27 28 29 30 31 32 33 34 35 36 37 38 39 40 41 42 43 44 45 46 47 48 49 50
000
ASUS42 KKEY 302310
RWRKEY

FLORIDA REGIONAL WEATHER ROUNDUP FOR THE FLORIDA KEYS
NATIONAL WEATHER SERVICE KEY WEST FLORIDA
700 PM EDT WED JUL 30 2014

...SOUTH FLORIDA AND THE KEYS...

CITY           SKY/WX    TMP DP  RH WIND       PRES   REMARKS
FORT MYERS     MOSUNNY   87  74  64 W9        29.95R HX  95
SW REGIONAL AP MOSUNNY   88  73  61 W10       29.95R HX  95
NAPLES         MOSUNNY   89  81  77 W8        29.95S HX 108
MIAMI          LGT RAIN  77  74  90 W5        29.97F FOG
WEST KENDALL   CLOUDY    78  75  90 E8        29.97F FOG
HOMESTEAD      CLOUDY    77  74  91 E5        29.97F
MARATHON       MOSUNNY   89  76  65 W6        29.97R HX 100
BOCA CHICA NAS MOSUNNY   89  75  63 W8        29.97S HX  99
KEY WEST INTL  MOSUNNY   89  75  63 W5        29.97S HX  99

...INTERNATIONAL WEATHER...

CITY           SKY/WX    TMP DP  RH WIND       PRES   REMARKS
NASSAU BAHAMAS LGT RAIN  81  75  83 W7        30.01R
CANCUN MEXICO  MOSUNNY   88  77  70 NE8       29.97F HX 100
COZUMEL MEXICO MOSUNNY   84  75  74 E9        29.97S HX  92

ADJACENT COASTAL WATERS...

STATION/POSITION TIME  SKY/WX   TEMP    WIND        PRES    WAVE
                                AIR SEA DIR/SP/G            HT/PER
                 (UTC)          (F)     (DEG/KT/KT) (MB)    (FT/S)
PULASKI SHOAL LI 2300            86     300/  8/  9 1014.9R
SAND KEY         2239            86     290/  7/ 10 1014.7F
SOMBRERO KEY     2300            84     290/ 17/ 21 1015.4R
LONG KEY         2200            87 92  290/  6/  8 1015.6R
MOLASSES REEF    2300            85 87  200/  9/ 10 1014.9S
FOWEY ROCKS      2300            81 86  310/  9/ 10 1015.4F
Buoy 42080       NOT AVBL

$$



USA.gov is the U.S. government's official web portal to all federal, state and local government web resources and services.